カタログに戻る

CZ-6A DEB

運用中PO
NORAD 54428·DEBRIS·🇨🇳 China

打ち上げ Nov 11, 2022 から Taiyuan Satellite Launch Center

Loading…

次のパス (今後24時間)

TLE

最新Source: Space-Track

元期: Sep 14, 2026, 13:36 UTC

1 54428U 22151FC  26257.56690877  .00000029  00000-0  85163-4 0  9992
2 54428  99.0856 118.9440 0463982 234.6334 121.0598 13.26971909185722

AllMySatでCZ-6A DEBをリアルタイム追跡

Download on the App Store